Temp
20 21 21 20 20 20 20 19 19 19 19 19 20 20 19 19 19 18 18 19 18 18 18 18 18 18 18 17 17 17 17 18 18 18 17 17 17 17 17 17 17 17 17
21 20 21 20 20 20 20 20 20 20 20 19 19 19 19 18 18 18 18 18 18 18 18 17 17 17 17 17 17 17 18 18 18 18 18 17 17 17 17 17 17 17 17
21 20 20 20 20 21 20 20 20 19 19 19 18 19 18 18 18 18 18 18 18 17 17 17 17 17 17 17 17 18 18 18 18 17 17 17 17 17 18 18 18 17 17
20 20 20 20 20 20 20 20 20 19 19 19 19 19 18 18 18 18 18 18 17 17 17 16 16 16 17 17 17 18 18 18 18 18 17 17 17 17 17 17 17 17 17
20 20 20 20 20 20 20 20 19 19 19 19 19 19 19 18 18 18 18 18 18 18 18 17 17 17 17 17 17 18 18 18 18 18 17 17 17 17 17 17 17 17 17
20 20 20 20 20 20 20 19 19 19 20 19 19 18 19 18 18 18 18 18 18 18 18 17 17 17 17 17 17 18 18 18 18 18 17 17 18 17 17 17 17 16 17
20 21 20 20 20 20 20 20 20 20 19 19 18 18 19 18 18 19 18 18 18 18 19 17 17 17 17 17 17 18 18 18 18 17 17 17 16 16 16 16 17 17 16
20 21 21 20 20 20 20 19 20 20 20 20 20 18 19 18 18 18 17 17 17 17 18 17 17 17 17 17 17 17 18 18 18 17 17 17 16 16 15 16 16 16 16
20 21 21 21 20 20 19 19 19 20 20 20 20 19 19 18 18 17 17 17 17 17 17 17 17 17 17 17 17 17 18 17 17 17 17 17 16 16 15 15 15 14 14
20 21 21 20 20 19 19 19 19 19 19 19 19 18 18 17 17 17 17 17 17 17 17 17 17 17 17 17 17 17 18 17 17 17 17 16 16 16 15 15 14 14 14
19 19 20 20 20 20 19 19 19 19 19 19 19 18 17 17 17 16 17 17 17 18 18 18 18 18 18 18 17 17 17 17 17 17 17 16 16 16 15 15 14 14 13
19 19 19 20 19 19 19 19 19 18 18 18 19 19 18 18 17 17 17 17 17 17 17 17 18 18 18 18 18 18 17 18 18 17 17 17 16 15 15 15 14 14 13
19 19 20 19 19 19 19 19 19 18 18 18 18 18 18 18 18 17 17 17 18 17 17 17 17 18 18 18 18 18 17 17 18 18 17 17 16 15 15 15 14 14 13
19 20 20 19 19 19 19 19 19 18 18 18 18 18 18 18 18 18 18 18 18 18 18 17 17 17 18 18 18 18 18 17 18 18 17 17 16 15 15 14 14 13 13
19 20 20 19 19 19 19 19 19 18 18 18 18 18 18 18 18 18 18 18 18 18 18 18 17 17 17 17 17 18 18 18 18 18 18 17 16 16 15 14 14 13 13
20 20 20 20 20 19 19 19 19 19 19 18 18 18 18 18 18 18 18 18 18 18 18 18 17 17 17 17 17 17 17 18 18 18 17 17 17 16 15 14 14 14 13
20 20 20 20 20 20 20 20 19 19 19 19 19 19 18 18 18 18 18 18 18 18 18 18 18 17 17 17 17 18 17 18 18 17 17 17 17 17 16 15 14 14 14
20 20 21 20 20 20 20 20 20 20 19 20 20 19 19 19 19 18 18 18 19 19 18 18 18 18 17 17 18 18 18 17 17 17 17 17 17 17 16 16 15 14 14
20 20 20 20 20 20 20 20 20 20 20 20 19 19 20 20 19 19 19 19 19 18 18 18 18 18 18 18 17 18 17 17 17 17 17 17 17 17 17 16 16 15 14
21 20 20 20 20 20 20 20 19 19 19 19 19 19 19 19 19 19 19 19 19 18 18 18 17 17 17 17 16 17 17 17 17 17 17 17 17 17 16 16 16 15 14
22 22 21 20 20 19 19 18 18 19 19 19 19 19 19 19 19 18 19 19 18 18 18 18 18 17 17 16 15 15 16 16 17 17 17 17 17 17 16 16 15 15 14
19 20 20 20 19 19 18 19 19 19 19 19 19 19 18 18 18 18 18 18 18 18 17 18 17 16 16 16 15 12 13 15 17 17 17 17 16 16 16 16 15 15 14
17 18 18 19 18 18 18 18 18 17 17 18 18 18 18 17 17 17 17 17 17 17 17 17 17 17 15 15 15 15 12 12 11 17 17 17 16 16 15 15 15 14 14
16 16 17 17 18 18 18 18 18 18 17 17 18 17 17 17 17 17 17 16 16 16 16 16 17 16 15 14 14 14 14 13 12 12 15 16 16 16 16 16 14 14 14
15 15 15 16 16 16 16 16 16 16 16 16 16 16 16 16 16 16 16 16 16 16 16 16 16 16 16 15 14 14 14 12 11 10 12 13 14 15 15 15 14 14 14
14 14 14 14 14 14 15 15 15 15 15 15 15 15 15 15 15 15 15 15 15 15 15 15 15 15 15 15 14 14 14 12 11 10 9 9 10 13 13 13 14 13 13
Height
806 810 814 817 819 821 823 825 826 828 829 830 831 831 832 832 833 834 836 837 838 839 839 840 841 842 842 843 843 844 844 844 844 845 845 846 846 847 847 847 847 848 848
804 809 813 817 820 822 824 826 828 829 830 831 832 833 834 834 834 837 838 839 840 840 841 842 843 844 844 845 845 846 846 846 847 847 847 847 848 848 849 849 849 849 849
805 808 813 817 820 822 825 827 829 831 832 833 833 834 835 835 837 839 840 840 842 842 843 844 845 846 846 847 847 848 849 849 849 849 849 849 849 850 850 850 849 850 851
806 809 813 817 820 823 826 828 830 831 833 834 834 835 836 838 840 841 841 843 844 844 845 845 847 848 849 849 850 851 851 851 852 852 851 851 851 852 852 851 850 850 851
807 810 814 818 821 824 826 828 830 832 834 835 836 837 839 841 842 842 843 845 845 846 846 847 849 850 851 852 853 853 853 854 854 854 854 854 855 855 855 854 853 853 854
808 812 816 819 822 825 827 829 831 832 834 836 837 839 841 843 843 843 845 847 848 848 848 850 851 852 853 854 855 855 856 856 856 856 856 857 857 857 857 857 856 856 856
811 814 817 820 822 826 828 830 832 833 834 837 839 841 842 843 844 845 848 849 849 850 851 852 853 854 855 856 857 857 857 858 858 858 858 859 859 859 859 858 857 857 857
812 815 819 821 823 826 829 832 833 834 836 837 840 842 844 844 846 847 849 849 850 851 852 853 854 855 856 857 858 858 859 859 860 860 860 861 861 860 859 858 858 857 856
814 817 819 822 824 827 830 832 834 835 837 839 840 842 844 846 847 849 850 851 851 852 853 854 855 856 857 858 858 859 860 860 861 861 861 862 862 862 861 860 859 858 857
814 818 819 821 824 827 830 832 835 836 838 840 841 842 844 846 848 850 851 851 852 852 854 855 856 857 857 858 859 859 860 860 861 861 862 863 863 863 862 861 860 860 859
815 818 820 821 824 827 830 833 835 837 839 840 841 843 844 846 848 850 851 852 852 853 854 855 856 856 857 858 858 859 860 861 861 861 861 862 863 863 862 861 861 860 859
814 816 819 821 824 826 830 832 834 837 839 841 842 843 844 846 848 849 850 851 852 853 854 855 856 856 857 857 858 858 859 860 860 861 861 862 863 863 863 862 861 861 860
812 815 818 821 824 826 829 831 834 836 838 840 842 843 844 846 847 849 850 851 851 853 853 854 855 856 856 857 857 858 858 859 860 860 861 862 863 863 862 861 861 861 861
812 815 818 821 823 826 829 830 833 835 837 839 840 842 844 845 846 847 849 850 850 852 853 853 854 855 855 855 856 857 857 858 859 859 860 861 861 862 862 861 860 860 860
811 814 816 820 822 825 827 830 832 833 835 837 838 840 843 844 845 846 847 848 849 851 851 852 853 853 854 855 855 855 856 856 857 857 858 858 858 859 859 859 859 859 859
811 813 816 818 821 823 826 828 830 832 833 835 837 839 840 842 843 844 845 846 847 848 849 850 851 851 852 853 853 853 853 854 854 854 855 856 856 856 856 857 857 857 857
809 812 814 817 819 822 824 826 828 830 832 833 835 836 838 839 840 841 842 843 844 846 847 848 849 849 849 850 850 851 851 851 851 852 852 852 853 854 853 855 855 856 857
808 809 812 814 817 820 822 824 825 828 829 831 832 834 835 836 837 838 839 840 841 843 844 845 846 846 846 846 846 847 847 848 848 848 848 849 849 849 849 850 851 852 852
804 807 809 812 814 816 819 821 823 826 827 829 830 832 832 833 834 835 835 836 838 840 840 841 841 842 842 842 842 842 843 843 843 844 843 844 844 845 845 846 847 848 849
803 805 807 809 811 814 816 818 820 823 825 826 827 828 829 830 831 831 832 832 834 835 835 836 837 837 837 837 838 837 837 837 838 837 837 838 838 839 841 841 842 843 844
801 802 804 805 808 810 812 814 816 818 819 821 822 824 825 826 826 827 827 828 829 829 830 831 832 832 832 833 834 831 830 831 831 830 830 831 832 833 834 835 837 837 840
798 799 801 803 804 806 808 811 813 814 816 817 819 820 821 821 822 822 823 823 824 824 825 825 826 827 827 828 829 830 827 825 824 824 823 823 825 827 828 830 831 833 835
798 799 799 801 803 804 806 808 810 812 813 814 815 816 816 817 817 817 817 818 818 819 818 819 820 821 822 823 824 826 827 825 822 820 821 821 822 822 823 824 825 827 828
798 799 799 800 801 802 804 805 806 808 809 811 812 813 813 814 814 813 813 813 813 813 813 814 815 815 817 818 819 820 821 821 822 819 818 818 820 819 819 819 819 821 822
797 798 799 800 801 802 803 804 806 807 808 808 809 810 810 810 810 810 809 809 809 808 808 808 809 810 812 813 814 816 817 818 818 821 816 816 816 816 815 815 816 817 817
795 796 798 800 801 802 803 804 805 806 807 807 808 808 808 808 808 807 806 805 805 804 803 804 804 805 807 809 810 811 813 815 815 816 817 815 814 813 812 812 811 811 811
Wind_Speed
19 24 21 19 19 16 15 14 13 12 10 10 9 8 8 8 9 11 12 15 14 13 12 12 12 13 14 15 15 15 15 15 15 15 14 12 12 11 14 13 11 9 11
29 26 22 19 18 17 15 13 12 11 10 8 8 8 8 10 12 11 14 14 13 12 12 11 12 12 13 14 15 14 14 15 15 14 13 13 13 10 10 9 9 8 7
32 27 23 19 18 17 15 14 13 13 12 11 8 7 10 10 14 13 15 14 13 11 11 11 11 11 12 13 12 11 12 13 13 12 10 10 11 11 10 7 4 4 6
29 27 23 20 19 18 17 16 16 13 10 7 5 7 12 11 13 13 14 12 11 10 10 11 11 11 12 11 10 9 9 10 10 10 10 8 11 9 9 15 8 5 6
28 26 24 21 20 19 18 18 15 11 7 4 7 12 8 11 12 11 14 10 9 8 9 11 11 11 11 10 9 8 8 7 8 9 12 11 11 7 9 13 18 13 9
28 25 23 22 20 20 20 18 14 9 5 5 10 14 12 11 12 11 12 8 7 6 9 10 10 11 10 8 7 6 7 8 8 9 9 13 11 10 10 10 10 11 9
27 23 21 21 20 20 19 16 12 7 4 7 14 13 11 13 10 10 8 7 6 6 7 9 9 9 8 6 5 6 6 5 6 6 6 7 8 7 6 5 4 4 6
26 22 19 19 19 20 18 15 11 6 6 8 13 13 11 10 10 12 8 9 6 5 6 7 8 8 7 5 4 4 3 2 3 4 4 3 4 5 6 5 4 4 3
25 23 21 18 18 18 16 14 9 7 6 8 11 15 12 10 9 8 7 6 5 4 5 5 6 5 5 3 2 2 1 2 1 2 2 3 4 4 4 5 5 5 4
26 23 22 19 19 18 16 13 10 8 6 6 10 14 13 12 11 10 9 7 5 4 5 4 4 3 3 3 3 2 0 3 2 2 1 1 1 1 3 5 4 4 4
22 21 20 19 19 18 16 14 12 10 7 5 7 9 10 9 11 11 10 8 6 5 6 5 4 4 4 4 5 5 4 3 4 4 3 2 2 2 3 4 3 2 2
18 19 20 21 20 19 16 14 14 12 10 8 7 7 8 8 9 10 9 9 7 6 6 6 5 5 5 5 6 7 8 6 6 6 6 5 5 4 3 5 4 2 1
25 21 21 21 20 19 17 15 16 15 13 11 9 8 8 9 10 11 11 10 9 9 8 8 8 7 6 6 7 8 9 9 8 8 8 8 7 6 5 6 5 4 3
22 20 19 20 21 18 18 16 17 18 16 15 13 11 11 11 12 12 11 11 10 10 10 10 10 10 9 9 9 10 10 11 10 10 10 10 10 9 8 7 6 5 5
21 20 19 20 21 20 19 17 18 19 18 16 15 15 15 15 13 12 12 12 12 12 11 11 12 13 13 13 12 13 14 13 13 12 12 12 13 13 11 10 9 8 8
21 20 19 19 20 20 20 19 19 19 18 18 18 18 18 18 16 15 14 15 14 14 14 14 14 15 15 15 16 16 17 17 16 16 15 15 16 17 16 13 12 11 10
22 19 20 20 21 22 22 21 20 19 19 19 18 18 19 19 19 19 18 18 17 16 17 18 18 18 19 18 19 18 18 18 19 19 19 18 18 19 19 18 15 14 12
19 21 21 21 21 23 25 23 22 21 20 19 18 17 18 19 20 21 22 22 20 20 21 22 23 23 23 23 23 23 22 21 22 23 23 22 21 21 22 22 21 17 16
18 21 22 24 24 22 22 27 26 25 24 23 21 20 20 21 22 23 24 25 24 24 25 25 26 27 28 28 28 28 26 26 26 27 28 27 25 24 24 24 24 23 20
16 17 17 18 21 22 20 22 27 26 26 26 25 24 23 24 25 28 28 28 27 26 26 27 26 28 29 30 30 30 29 28 28 29 31 31 30 27 26 27 27 27 25
17 17 16 17 19 19 18 20 20 23 24 25 25 25 24 24 23 23 25 28 28 28 29 28 26 26 28 27 25 24 26 24 25 28 31 33 33 32 29 28 29 30 28
14 15 14 12 12 16 21 20 18 18 22 27 25 24 23 25 26 28 28 28 26 26 27 27 27 26 24 24 11 3 3 8 19 20 22 27 31 32 32 31 30 31 31
11 11 11 10 8 8 8 12 15 15 15 15 15 15 14 15 16 17 19 22 23 24 25 25 23 23 23 18 19 11 1 4 3 9 12 14 18 24 27 31 29 29 29
11 10 9 8 7 6 6 6 8 9 9 8 9 10 10 10 11 12 13 15 18 20 22 24 22 22 21 20 17 20 22 11 2 3 5 9 16 22 21 21 23 25 27
11 9 8 7 6 4 3 3 4 4 5 6 7 9 9 8 10 10 11 12 15 17 19 21 21 20 19 20 19 15 14 18 19 7 5 5 11 13 15 16 18 21 22
11 10 9 7 6 5 3 2 1 2 3 5 6 7 6 6 5 6 7 8 9 11 15 18 18 18 18 18 18 15 14 6 5 8 5 7 8 11 15 18 19 20 20
Wind_Direction
174 166 169 160 159 154 148 144 140 135 127 116 112 104 103 97 99 103 102 114 104 100 96 96 95 94 94 93 92 90 86 83 82 81 85 86 79 77 73 92 82 89 90
161 164 166 162 158 152 149 148 143 137 127 121 113 114 105 102 107 112 119 111 106 102 100 103 103 101 101 99 96 93 87 84 82 81 80 82 77 82 84 88 94 85 80
160 163 162 163 157 152 151 148 144 139 133 123 115 116 111 108 118 117 120 111 106 100 100 104 107 105 108 108 104 96 93 90 82 78 78 84 82 78 70 66 73 77 66
159 162 160 165 157 155 153 148 143 145 135 132 135 129 122 122 128 126 124 116 111 100 104 107 112 115 116 112 102 95 99 91 77 73 67 83 90 78 69 52 61 108 80
160 161 161 163 160 156 152 150 150 143 138 126 136 119 114 137 135 128 132 141 113 93 101 111 118 122 120 111 102 93 87 96 82 71 67 79 87 82 75 60 66 86 67
161 162 162 164 160 158 156 157 154 161 159 146 134 115 127 149 139 135 148 143 120 97 107 114 120 126 124 114 99 86 102 100 89 79 78 86 86 83 73 63 62 66 63
162 161 166 165 162 162 162 162 165 164 149 149 144 130 142 141 138 138 145 162 136 111 116 119 122 129 129 114 96 77 120 103 84 70 71 87 82 63 51 58 61 36 35
160 162 169 171 167 168 169 172 174 168 152 154 160 148 147 145 152 160 166 152 143 129 129 132 130 135 140 132 113 85 106 106 70 41 58 90 60 51 48 37 21 9 356
162 167 173 181 174 177 178 178 178 167 155 161 166 161 164 165 167 170 175 163 157 149 145 145 141 145 154 165 160 126 30 187 16 27 60 104 90 54 37 23 19 36 46
169 174 178 181 181 182 184 185 180 165 162 171 171 174 181 182 187 190 194 188 181 175 167 162 163 167 185 196 212 215 290 197 257 304 285 138 109 22 347 3 32 37 38
176 183 186 186 184 185 190 189 186 180 180 176 181 186 192 195 202 206 207 205 200 197 187 184 192 201 214 224 232 229 236 241 255 265 255 227 226 236 301 324 340 23 44
184 191 195 187 187 187 192 196 195 196 197 196 192 199 203 211 215 212 210 207 211 210 209 214 221 232 240 236 239 241 238 256 268 262 254 244 232 245 264 299 305 301 301
190 192 191 191 192 193 198 206 204 208 210 212 210 216 216 218 216 217 217 217 218 216 221 230 237 249 255 252 253 254 250 251 269 275 262 248 242 244 250 282 282 283 250
192 196 195 198 199 202 207 217 216 213 218 222 224 226 227 227 227 227 228 228 228 229 235 246 254 257 260 261 260 259 259 258 266 276 269 254 245 248 248 257 264 252 229
197 200 202 203 208 211 214 221 220 221 228 233 235 236 234 234 237 240 236 236 239 240 248 257 261 263 266 268 270 264 265 269 270 274 267 260 253 248 242 242 242 235 231
205 208 208 210 213 216 220 224 225 230 236 240 241 241 241 241 243 247 246 245 247 251 258 265 267 269 271 272 273 271 269 268 273 271 269 264 257 252 250 246 239 235 233
213 216 215 218 219 223 226 229 233 235 238 240 244 243 243 244 246 249 252 253 256 259 263 264 267 270 271 272 272 271 271 269 271 273 277 269 260 255 251 249 241 239 237
218 221 225 224 229 233 234 235 236 238 240 243 247 247 249 249 249 252 256 260 264 265 266 265 266 268 270 270 272 272 271 271 272 272 273 270 264 258 253 250 250 240 235
225 228 230 228 233 237 239 239 240 243 245 248 250 251 253 256 257 258 261 264 266 265 265 265 266 263 267 271 271 274 273 272 272 274 271 268 265 262 256 253 251 250 246
234 235 233 230 232 236 239 238 241 245 246 249 250 253 256 258 260 259 262 266 268 267 265 265 266 268 266 270 274 275 275 275 273 272 267 263 265 262 259 254 251 248 248
224 232 234 231 226 226 227 230 233 239 241 243 247 252 254 256 259 260 260 265 267 264 266 268 269 266 269 269 271 278 278 281 281 273 268 263 263 262 261 258 253 250 248
206 205 207 210 216 223 229 233 235 244 249 252 256 257 259 260 262 264 264 266 266 264 262 263 262 261 264 269 248 260 289 285 282 280 273 266 264 264 265 264 259 255 250
174 169 173 178 181 185 199 215 225 233 241 247 252 257 257 256 258 260 260 262 263 262 262 264 263 261 255 264 261 233 255 234 337 286 285 289 279 274 272 271 268 264 258
175 169 166 168 180 196 212 224 232 241 249 252 259 260 264 267 268 270 270 267 265 265 263 262 262 261 261 255 258 249 247 261 250 308 274 272 288 284 281 284 277 271 266
172 161 150 146 143 155 191 215 235 247 261 274 278 277 280 288 291 286 278 279 274 270 272 269 265 262 261 256 254 252 264 255 259 227 283 257 267 285 288 290 294 289 282
158 149 145 136 122 123 130 138 193 260 282 291 297 299 298 301 300 307 311 308 310 295 276 269 266 262 257 254 250 246 254 236 233 231 238 258 249 283 292 292 286 288 285